EDW144 LSZH-HELX

Flight info

Callsign EDW144
Flight time 3h 51m
Altitude 35000
Route DEGES Z2 XEBIX L607 ELMEM N606 GIRIS DCT NIVAS DCT PEVAL/N0454F390 DCT NERRA DCT RODON DCT DIMIS DCT TRL DCT SALUN N705 BOPIX N710 TAKRI P751 LXR
Aircraft A320/M-SDE3FGHIRWY/LB1

Departure

Time 2026-04-17 21:17
Airport Zürich Airport (LSZH)

Arrival

Time 2026-04-18 01:08
Airport Luxor International Airport (HELX)
Time Latitude Longitude Altitude Speed Heading
2026-04-17 20:55 47.45163 8.55879 1407 ft 0 kts 186°
2026-04-17 21:08 47.45192 8.55884 1407 ft 5 kts 187°
2026-04-17 21:09 47.45224 8.55891 1407 ft 4 kts 192°
2026-04-17 21:09 47.45243 8.55899 1411 ft 2 kts 228°
2026-04-17 21:09 47.45250 8.55913 1415 ft 2 kts 264°
2026-04-17 21:09 47.45250 8.55930 1413 ft 2 kts 275°
2026-04-17 21:10 47.45249 8.55942 1409 ft 0 kts 276°
2026-04-17 21:11 47.45253 8.55893 1408 ft 9 kts 276°
2026-04-17 21:11 47.45260 8.55790 1409 ft 13 kts 276°
2026-04-17 21:11 47.45271 8.55644 1406 ft 14 kts 276°
2026-04-17 21:11 47.45327 8.55541 1410 ft 14 kts 335°
2026-04-17 21:12 47.45433 8.55471 1404 ft 19 kts 335°
2026-04-17 21:12 47.45559 8.55383 1403 ft 21 kts 335°
2026-04-17 21:12 47.45643 8.55332 1400 ft 11 kts 359°
2026-04-17 21:12 47.45670 8.55428 1401 ft 12 kts 96°
2026-04-17 21:13 47.45659 8.55567 1407 ft 14 kts 97°
2026-04-17 21:13 47.45649 8.55697 1405 ft 14 kts 96°
2026-04-17 21:13 47.45637 8.55875 1409 ft 21 kts 96°
2026-04-17 21:13 47.45624 8.56086 1411 ft 20 kts 95°
2026-04-17 21:14 47.45612 8.56225 1412 ft 9 kts 93°
2026-04-17 21:14 47.45667 8.56271 1415 ft 12 kts
2026-04-17 21:14 47.45750 8.56283 1415 ft 10 kts
2026-04-17 21:14 47.45839 8.56298 1418 ft 16 kts
2026-04-17 21:15 47.45964 8.56317 1412 ft 16 kts
2026-04-17 21:15 47.46070 8.56334 1410 ft 15 kts
2026-04-17 21:15 47.46182 8.56351 1409 ft 17 kts 354°
2026-04-17 21:15 47.46248 8.56283 1411 ft 6 kts 317°
2026-04-17 21:16 47.46281 8.56238 1409 ft 7 kts 317°
2026-04-17 21:16 47.46376 8.56109 1406 ft 45 kts 317°
2026-04-17 21:16 47.46811 8.55515 1395 ft 123 kts 317°
2026-04-17 21:16 47.47586 8.54456 1442 ft 177 kts 317°
2026-04-17 21:17 47.48499 8.53227 2228 ft 179 kts 318°
2026-04-17 21:17 47.49431 8.51979 3107 ft 183 kts 321°
2026-04-17 21:17 47.50550 8.50936 3466 ft 200 kts 332°
2026-04-17 21:17 47.51826 8.49919 3790 ft 215 kts 330°
2026-04-17 21:18 47.52919 8.48343 4189 ft 228 kts 301°
2026-04-17 21:18 47.53359 8.46911 4559 ft 234 kts 286°
2026-04-17 21:18 47.53480 8.44507 5353 ft 232 kts 261°
2026-04-17 21:18 47.52974 8.42272 6054 ft 234 kts 244°
2026-04-17 21:19 47.52266 8.40102 6774 ft 235 kts 244°
2026-04-17 21:19 47.51452 8.38012 7431 ft 238 kts 225°
2026-04-17 21:19 47.49995 8.36885 8011 ft 244 kts 188°
2026-04-17 21:19 47.48313 8.36987 8755 ft 244 kts 166°
2026-04-17 21:20 47.46814 8.38175 9384 ft 251 kts 135°
2026-04-17 21:20 47.45963 8.40427 10023 ft 255 kts 101°
2026-04-17 21:20 47.45688 8.43008 10684 ft 257 kts 93°
2026-04-17 21:20 47.45687 8.45757 10926 ft 279 kts 89°
2026-04-17 21:21 47.45709 8.48741 11109 ft 302 kts 89°
2026-04-17 21:21 47.45719 8.51961 11274 ft 325 kts 90°
2026-04-17 21:21 47.45726 8.55421 11407 ft 348 kts 89°
2026-04-17 21:21 47.45801 8.59072 11794 ft 360 kts 87°
2026-04-17 21:22 47.45933 8.62785 12408 ft 364 kts 86°
2026-04-17 21:22 47.46091 8.66524 13065 ft 367 kts 86°
2026-04-17 21:22 47.46254 8.70308 13725 ft 370 kts 86°
2026-04-17 21:22 47.46412 8.74115 14347 ft 373 kts 86°
2026-04-17 21:23 47.46562 8.77955 14919 ft 375 kts 86°
2026-04-17 21:23 47.46622 8.81824 15485 ft 379 kts 93°
2026-04-17 21:23 47.46236 8.85682 16046 ft 382 kts 102°
2026-04-17 21:23 47.45664 8.89531 16608 ft 385 kts 102°
2026-04-17 21:24 47.45094 8.93415 17162 ft 388 kts 101°
2026-04-17 21:24 47.44532 8.97325 17703 ft 391 kts 101°
2026-04-17 21:24 47.43973 9.01273 18247 ft 394 kts 101°
2026-04-17 21:24 47.43414 9.05241 18735 ft 397 kts 101°
2026-04-17 21:25 47.42843 9.09236 19194 ft 399 kts 101°
2026-04-17 21:25 47.42261 9.13262 19645 ft 402 kts 101°
2026-04-17 21:25 47.41743 9.17325 20086 ft 404 kts 95°
2026-04-17 21:25 47.41656 9.21467 20527 ft 405 kts 85°
2026-04-17 21:26 47.42063 9.25583 20967 ft 406 kts 76°
2026-04-17 21:26 47.42693 9.29655 21397 ft 409 kts 76°
2026-04-17 21:26 47.43321 9.33763 21828 ft 411 kts 76°
2026-04-17 21:26 47.43948 9.37895 22251 ft 414 kts 76°
2026-04-17 21:27 47.44566 9.41997 22661 ft 416 kts 76°
2026-04-17 21:27 47.45196 9.46184 23075 ft 419 kts 76°
2026-04-17 21:27 47.45829 9.50398 23488 ft 421 kts 76°
2026-04-17 21:27 47.46463 9.54632 23868 ft 424 kts 76°
2026-04-17 21:28 47.47001 9.58919 24197 ft 427 kts 83°
2026-04-17 21:28 47.47097 9.63324 24531 ft 430 kts 92°
2026-04-17 21:28 47.46861 9.67738 24862 ft 432 kts 94°
2026-04-17 21:28 47.46617 9.72172 25190 ft 434 kts 93°
2026-04-17 21:29 47.46121 9.76580 25500 ft 437 kts 107°
2026-04-17 21:29 47.44841 9.80654 25806 ft 441 kts 123°
2026-04-17 21:29 47.42888 9.84163 26110 ft 443 kts 131°
2026-04-17 21:29 47.40808 9.87534 26416 ft 445 kts 131°
2026-04-17 21:30 47.38712 9.90912 26735 ft 447 kts 131°
2026-04-17 21:30 47.36600 9.94305 27045 ft 450 kts 131°
2026-04-17 21:30 47.34482 9.97704 27357 ft 451 kts 131°
2026-04-17 21:30 47.32358 10.01111 27658 ft 453 kts 131°
2026-04-17 21:31 47.30215 10.04551 27934 ft 455 kts 131°
2026-04-17 21:31 47.28074 10.07992 28209 ft 458 kts 131°
2026-04-17 21:31 47.25911 10.11462 28508 ft 459 kts 131°
2026-04-17 21:31 47.23748 10.14929 28785 ft 461 kts 131°
2026-04-17 21:32 47.21575 10.18408 29054 ft 463 kts 131°
2026-04-17 21:32 47.19389 10.21901 29317 ft 465 kts 131°
2026-04-17 21:32 47.17201 10.25393 29580 ft 467 kts 131°
2026-04-17 21:32 47.14989 10.28915 29833 ft 469 kts 131°
2026-04-17 21:33 47.12772 10.32433 30080 ft 470 kts 131°
2026-04-17 21:33 47.10540 10.35967 30329 ft 472 kts 131°
2026-04-17 21:33 47.08343 10.39447 30600 ft 472 kts 131°
2026-04-17 21:33 47.06113 10.42979 30910 ft 471 kts 131°
2026-04-17 21:34 47.03886 10.46505 31246 ft 470 kts 131°
2026-04-17 21:34 47.01668 10.50013 31553 ft 470 kts 131°
2026-04-17 21:34 46.97225 10.57029 32115 ft 469 kts 131°
2026-04-17 21:35 46.95007 10.60525 32441 ft 468 kts 131°
2026-04-17 21:35 46.92795 10.64007 32758 ft 467 kts 131°
2026-04-17 21:35 46.90586 10.67470 33057 ft 466 kts 131°
2026-04-17 21:35 46.88374 10.70932 33360 ft 465 kts 131°
2026-04-17 21:36 46.86170 10.74376 33679 ft 464 kts 131°
2026-04-17 21:36 46.83969 10.77812 33991 ft 463 kts 131°
2026-04-17 21:36 46.81771 10.81241 34277 ft 462 kts 131°
2026-04-17 21:36 46.79573 10.84666 34524 ft 462 kts 131°
2026-04-17 21:37 46.77379 10.88088 34740 ft 462 kts 131°
2026-04-17 21:37 46.75201 10.91526 34944 ft 462 kts 130°
2026-04-17 21:37 46.73052 10.95016 35140 ft 462 kts 129°
2026-04-17 21:38 46.68843 11.02018 35229 ft 462 kts 129°
2026-04-17 21:38 46.64601 11.09044 35200 ft 462 kts 130°
2026-04-17 21:39 46.60289 11.16071 35169 ft 470 kts 130°
2026-04-17 21:39 46.55871 11.23225 35148 ft 479 kts 130°
2026-04-17 21:40 46.51411 11.30453 35144 ft 481 kts 130°
2026-04-17 21:40 46.46937 11.37689 35148 ft 481 kts 130°
2026-04-17 21:41 46.42460 11.44918 35140 ft 482 kts 130°
2026-04-17 21:41 46.37976 11.52128 35151 ft 482 kts 130°
2026-04-17 21:42 46.33480 11.59349 35169 ft 482 kts 130°
2026-04-17 21:42 46.28983 11.66550 35177 ft 483 kts 130°
2026-04-17 21:43 46.24504 11.73693 35183 ft 483 kts 130°
2026-04-17 21:43 46.19989 11.80874 35165 ft 482 kts 130°
2026-04-17 21:44 46.15478 11.88041 35161 ft 482 kts 130°
2026-04-17 21:44 46.10965 11.95186 35144 ft 482 kts 130°
2026-04-17 21:45 46.06449 12.02333 35141 ft 482 kts 130°
2026-04-17 21:45 46.01914 12.09465 35130 ft 483 kts 131°
2026-04-17 21:46 45.97378 12.16581 35130 ft 483 kts 131°
2026-04-17 21:46 45.92834 12.23704 35123 ft 483 kts 131°
2026-04-17 21:47 45.88303 12.30830 35119 ft 483 kts 130°
2026-04-17 21:47 45.83908 12.38107 35118 ft 483 kts 128°
2026-04-17 21:48 45.79568 12.45475 35120 ft 483 kts 128°
2026-04-17 21:48 45.75196 12.52803 35113 ft 484 kts 129°
2026-04-17 21:49 45.70785 12.60076 35117 ft 484 kts 129°
2026-04-17 21:49 45.66365 12.67336 35114 ft 484 kts 129°
2026-04-17 21:50 45.61969 12.74557 35111 ft 485 kts 129°
2026-04-17 21:50 45.57542 12.81828 35112 ft 485 kts 129°
2026-04-17 21:51 45.53109 12.89090 35116 ft 486 kts 129°
2026-04-17 21:51 45.48660 12.96351 35117 ft 486 kts 129°
2026-04-17 21:52 45.44204 13.03595 35120 ft 486 kts 129°
2026-04-17 21:52 45.39742 13.10830 35121 ft 486 kts 129°
2026-04-17 21:53 45.35279 13.18057 35126 ft 487 kts 129°
2026-04-17 21:53 45.30808 13.25289 35127 ft 487 kts 128°
2026-04-17 21:54 45.26634 13.32830 35123 ft 485 kts 123°
2026-04-17 21:54 45.22748 13.40653 35128 ft 485 kts 122°
2026-04-17 21:55 45.18828 13.48444 35131 ft 485 kts 124°
2026-04-17 21:55 45.14826 13.56078 35133 ft 486 kts 124°
2026-04-17 21:56 45.10763 13.63725 35134 ft 486 kts 124°
2026-04-17 21:56 45.06710 13.71387 35140 ft 486 kts 124°
2026-04-17 21:57 45.02658 13.79050 35137 ft 486 kts 124°
2026-04-17 21:57 44.98601 13.86708 35136 ft 486 kts 124°
2026-04-17 21:58 44.94544 13.94348 35140 ft 486 kts 124°
2026-04-17 21:58 44.90485 14.01978 35133 ft 486 kts 124°
2026-04-17 21:59 44.86415 14.09598 35132 ft 486 kts 124°
2026-04-17 21:59 44.82363 14.17147 35129 ft 486 kts 124°
2026-04-17 22:00 44.78276 14.24746 35130 ft 487 kts 124°
2026-04-17 22:00 44.74191 14.32345 35124 ft 487 kts 124°
2026-04-17 22:01 44.70094 14.39937 35118 ft 487 kts 125°
2026-04-17 22:01 44.65988 14.47513 35109 ft 488 kts 124°
2026-04-17 22:02 44.61875 14.55100 35122 ft 488 kts 125°
2026-04-17 22:02 44.57747 14.62676 35107 ft 489 kts 125°
2026-04-17 22:03 44.53646 14.70188 35107 ft 489 kts 125°
2026-04-17 22:03 44.49512 14.77750 35105 ft 489 kts 125°
2026-04-17 22:04 44.45375 14.85298 35106 ft 489 kts 125°
2026-04-17 22:04 44.41227 14.92831 35104 ft 489 kts 125°
2026-04-17 22:05 44.37073 15.00368 35105 ft 489 kts 125°
2026-04-17 22:05 44.32907 15.07897 35100 ft 490 kts 125°
2026-04-17 22:06 44.28734 15.15418 35107 ft 490 kts 125°
2026-04-17 22:06 44.24556 15.22936 35110 ft 490 kts 125°
2026-04-17 22:07 44.20368 15.30457 35352 ft 491 kts 126°
2026-04-17 22:07 44.18269 15.34207 35551 ft 491 kts 126°
2026-04-17 22:07 44.16197 15.37911 35733 ft 491 kts 126°
2026-04-17 22:07 44.14104 15.41657 35902 ft 491 kts 126°
2026-04-17 22:08 44.12010 15.45401 36089 ft 491 kts 126°
2026-04-17 22:08 44.09879 15.49198 36263 ft 491 kts 126°
2026-04-17 22:08 44.07805 15.52885 36434 ft 491 kts 126°
2026-04-17 22:08 44.05703 15.56620 36580 ft 491 kts 126°
2026-04-17 22:09 44.03600 15.60358 36751 ft 491 kts 126°
2026-04-17 22:09 44.01500 15.64090 36894 ft 491 kts 126°
2026-04-17 22:09 43.99394 15.67818 37059 ft 490 kts 126°
2026-04-17 22:10 43.95171 15.75271 37083 ft 491 kts 126°
2026-04-17 22:10 43.90948 15.82716 37081 ft 491 kts 127°
2026-04-17 22:11 43.86722 15.90138 37083 ft 491 kts 127°
2026-04-17 22:11 43.82492 15.97556 37077 ft 490 kts 127°
2026-04-17 22:12 43.78261 16.04966 37074 ft 491 kts 127°
2026-04-17 22:12 43.74022 16.12365 37075 ft 491 kts 127°
2026-04-17 22:13 43.69775 16.19744 37074 ft 490 kts 127°
2026-04-17 22:13 43.66246 16.25868 37069 ft 490 kts 127°
2026-04-17 22:14 43.61995 16.33227 37066 ft 490 kts 127°
2026-04-17 22:14 43.57740 16.40576 37068 ft 490 kts 127°
2026-04-17 22:15 43.52792 16.49099 37069 ft 489 kts 127°
2026-04-17 22:15 43.49227 16.55231 37068 ft 489 kts 127°
2026-04-17 22:16 43.44968 16.62537 37068 ft 489 kts 127°
2026-04-17 22:16 43.40700 16.69832 37072 ft 489 kts 127°
2026-04-17 22:17 43.36435 16.77107 37070 ft 489 kts 127°
2026-04-17 22:17 43.32171 16.84380 37071 ft 489 kts 128°
2026-04-17 22:18 43.27926 16.91593 37070 ft 489 kts 128°
2026-04-17 22:18 43.23645 16.98834 37070 ft 488 kts 128°
2026-04-17 22:19 43.19362 17.06062 37069 ft 488 kts 128°
2026-04-17 22:19 43.15079 17.13281 37063 ft 488 kts 128°
2026-04-17 22:20 43.10796 17.20488 37059 ft 488 kts 128°
2026-04-17 22:20 43.06513 17.27679 37062 ft 488 kts 128°
2026-04-17 22:21 43.02214 17.34860 37052 ft 488 kts 128°
2026-04-17 22:21 42.97912 17.42023 37052 ft 488 kts 128°
2026-04-17 22:22 42.93643 17.49141 37043 ft 487 kts 128°
2026-04-17 22:22 42.89074 17.55948 37040 ft 487 kts 140°
2026-04-17 22:23 42.83807 17.61764 37031 ft 487 kts 141°
2026-04-17 22:23 42.78549 17.67576 37025 ft 487 kts 141°
2026-04-17 22:24 42.73288 17.73373 37018 ft 486 kts 141°
2026-04-17 22:24 42.68038 17.79146 37013 ft 485 kts 141°
2026-04-17 22:25 42.62784 17.84902 37007 ft 485 kts 141°
2026-04-17 22:25 42.57538 17.90648 37001 ft 484 kts 141°
2026-04-17 22:26 42.52300 17.96377 36999 ft 483 kts 141°
2026-04-17 22:26 42.47067 18.02094 36996 ft 483 kts 141°
2026-04-17 22:27 42.41868 18.07742 36996 ft 482 kts 141°
2026-04-17 22:27 42.36637 18.13404 36991 ft 481 kts 141°
2026-04-17 22:28 42.31417 18.19058 36988 ft 480 kts 141°
2026-04-17 22:28 42.26204 18.24688 36983 ft 480 kts 141°
2026-04-17 22:29 42.20998 18.30309 36979 ft 479 kts 141°
2026-04-17 22:29 42.15796 18.35915 36977 ft 478 kts 141°
2026-04-17 22:30 42.10595 18.41499 36974 ft 478 kts 141°
2026-04-17 22:30 42.05391 18.47065 36982 ft 478 kts 141°
2026-04-17 22:31 42.00184 18.52620 36983 ft 478 kts 141°
2026-04-17 22:31 41.94982 18.58170 36983 ft 477 kts 141°
2026-04-17 22:32 41.89774 18.63709 36988 ft 477 kts 141°
2026-04-17 22:32 41.84564 18.69235 36986 ft 477 kts 141°
2026-04-17 22:33 41.79391 18.74713 36976 ft 477 kts 141°
2026-04-17 22:33 41.74189 18.80217 36978 ft 476 kts 141°
2026-04-17 22:34 41.68988 18.85705 36969 ft 476 kts 141°
2026-04-17 22:34 41.63796 18.91176 36968 ft 475 kts 141°
2026-04-17 22:35 41.58591 18.96640 36964 ft 476 kts 141°
2026-04-17 22:35 41.53394 19.02097 36966 ft 476 kts 141°
2026-04-17 22:36 41.48188 19.07546 36940 ft 476 kts 141°
2026-04-17 22:36 41.42995 19.13014 36940 ft 475 kts 140°
2026-04-17 22:37 41.37917 19.18646 36929 ft 475 kts 139°
2026-04-17 22:37 41.32871 19.24324 36926 ft 475 kts 140°
2026-04-17 22:38 41.27830 19.29924 36932 ft 475 kts 140°
2026-04-17 22:38 41.22749 19.35505 36935 ft 474 kts 140°
2026-04-17 22:39 41.17666 19.41069 36933 ft 473 kts 140°
2026-04-17 22:39 41.10067 19.49381 36925 ft 471 kts 140°
2026-04-17 22:40 41.05013 19.54897 36924 ft 470 kts 140°
2026-04-17 22:40 40.99964 19.60404 36926 ft 470 kts 140°
2026-04-17 22:41 40.94920 19.65895 36927 ft 469 kts 140°
2026-04-17 22:41 40.89879 19.71360 36918 ft 469 kts 140°
2026-04-17 22:42 40.84836 19.76821 36929 ft 468 kts 140°
2026-04-17 22:42 40.79793 19.82267 36927 ft 468 kts 140°
2026-04-17 22:43 40.74756 19.87698 36929 ft 468 kts 140°
2026-04-17 22:43 40.69716 19.93127 36929 ft 467 kts 140°
2026-04-17 22:44 40.64677 19.98538 36925 ft 467 kts 140°
2026-04-17 22:44 40.59637 20.03943 36929 ft 467 kts 140°
2026-04-17 22:45 40.54624 20.09307 36952 ft 467 kts 140°
2026-04-17 22:45 40.49582 20.14690 36952 ft 467 kts 140°
2026-04-17 22:46 40.44540 20.20061 36959 ft 466 kts 141°
2026-04-17 22:46 40.39505 20.25418 36965 ft 466 kts 140°
2026-04-17 22:47 40.34466 20.30771 36974 ft 465 kts 141°
2026-04-17 22:47 40.29440 20.36096 36971 ft 464 kts 141°
2026-04-17 22:48 40.24417 20.41397 36980 ft 463 kts 141°
2026-04-17 22:48 40.19409 20.46679 36971 ft 462 kts 141°
2026-04-17 22:49 40.14416 20.51939 36983 ft 460 kts 141°
2026-04-17 22:49 40.09436 20.57178 36971 ft 459 kts 140°
2026-04-17 22:50 40.04079 20.61659 36979 ft 458 kts 152°
2026-04-17 22:50 39.98457 20.65471 36972 ft 458 kts 152°
2026-04-17 22:51 39.92819 20.69304 36969 ft 457 kts 152°
2026-04-17 22:51 39.87184 20.73127 36972 ft 457 kts 152°
2026-04-17 22:52 39.81544 20.76945 36972 ft 456 kts 152°
2026-04-17 22:52 39.75914 20.80750 36963 ft 456 kts 152°
2026-04-17 22:53 39.70284 20.84557 36974 ft 456 kts 152°
2026-04-17 22:53 39.64656 20.88346 36964 ft 455 kts 152°
2026-04-17 22:54 39.59032 20.92124 36967 ft 455 kts 152°
2026-04-17 22:54 39.53414 20.95891 36951 ft 454 kts 152°
2026-04-17 22:55 39.47804 20.99651 36956 ft 454 kts 152°
2026-04-17 22:55 39.42202 21.03398 36941 ft 453 kts 152°
2026-04-17 22:56 39.36597 21.07143 36941 ft 453 kts 152°
2026-04-17 22:56 39.31004 21.10874 36926 ft 452 kts 152°
2026-04-17 22:57 39.25410 21.14595 36929 ft 452 kts 152°
2026-04-17 22:57 39.19818 21.18309 36927 ft 452 kts 152°
2026-04-17 22:58 39.14233 21.22005 36928 ft 452 kts 152°
2026-04-17 22:58 39.08678 21.25679 36926 ft 451 kts 152°
2026-04-17 22:59 39.03096 21.29375 36929 ft 451 kts 152°
2026-04-17 22:59 38.97507 21.33057 36927 ft 451 kts 152°
2026-04-17 23:00 38.91923 21.36725 36924 ft 451 kts 152°
2026-04-17 23:00 38.86296 21.40420 36905 ft 459 kts 153°
2026-04-17 23:01 38.80559 21.44177 36912 ft 467 kts 153°
2026-04-17 23:01 38.74722 21.48006 36910 ft 475 kts 153°
2026-04-17 23:02 38.68817 21.51863 36911 ft 476 kts 153°
2026-04-17 23:02 38.62908 21.55711 36903 ft 477 kts 153°
2026-04-17 23:03 38.56992 21.59554 36905 ft 477 kts 153°
2026-04-17 23:03 38.51068 21.63393 36912 ft 477 kts 153°
2026-04-17 23:04 38.45153 21.67236 36911 ft 477 kts 153°
2026-04-17 23:04 38.39280 21.71051 36902 ft 477 kts 153°
2026-04-17 23:05 38.33363 21.74876 36901 ft 477 kts 153°
2026-04-17 23:05 38.27437 21.78690 36903 ft 477 kts 153°
2026-04-17 23:06 38.21632 21.82430 37977 ft 447 kts 152°
2026-04-17 23:06 38.18902 21.84183 38822 ft 433 kts 152°
2026-04-17 23:06 38.16240 21.85887 39110 ft 429 kts 152°
2026-04-17 23:07 38.13551 21.87614 38917 ft 437 kts 152°
2026-04-17 23:07 38.10821 21.89369 38884 ft 441 kts 152°
2026-04-17 23:07 38.05308 21.92896 38892 ft 446 kts 152°
2026-04-17 23:08 37.99726 21.96463 38904 ft 452 kts 152°
2026-04-17 23:08 37.95036 21.99458 38902 ft 456 kts 152°
2026-04-17 23:09 37.89351 22.03085 38904 ft 458 kts 152°
2026-04-17 23:09 37.82730 22.07297 38904 ft 459 kts 153°
2026-04-17 23:10 37.77942 22.10330 38910 ft 460 kts 153°
2026-04-17 23:10 37.72218 22.13954 38925 ft 461 kts 153°
2026-04-17 23:11 37.66519 22.17566 38922 ft 461 kts 153°
2026-04-17 23:11 37.60782 22.21193 38926 ft 462 kts 153°
2026-04-17 23:12 37.55034 22.24817 38932 ft 462 kts 153°
2026-04-17 23:12 37.49296 22.28432 38928 ft 461 kts 153°
2026-04-17 23:13 37.43547 22.32033 38927 ft 461 kts 153°
2026-04-17 23:13 37.37817 22.35630 38925 ft 460 kts 153°
2026-04-17 23:14 37.32131 22.39333 38922 ft 460 kts 152°
2026-04-17 23:14 37.26501 22.43044 38919 ft 460 kts 153°
2026-04-17 23:15 37.20823 22.46741 38914 ft 460 kts 153°
2026-04-17 23:15 37.15130 22.50409 38908 ft 460 kts 153°
2026-04-17 23:16 37.09436 22.54073 38901 ft 460 kts 153°
2026-04-17 23:16 37.03736 22.57742 38889 ft 461 kts 153°
2026-04-17 23:17 36.98032 22.61417 38882 ft 461 kts 153°
2026-04-17 23:17 36.92317 22.65086 38880 ft 462 kts 154°
2026-04-17 23:18 36.86590 22.68751 38873 ft 463 kts 153°
2026-04-17 23:18 36.80892 22.72397 38875 ft 464 kts 154°
2026-04-17 23:19 36.75140 22.76069 38873 ft 465 kts 154°
2026-04-17 23:19 36.69379 22.79754 38870 ft 465 kts 154°
2026-04-17 23:20 36.63610 22.83423 38865 ft 466 kts 154°
2026-04-17 23:20 36.57830 22.87089 38861 ft 467 kts 154°
2026-04-17 23:21 36.52041 22.90763 38861 ft 467 kts 154°
2026-04-17 23:21 36.46247 22.94440 38863 ft 468 kts 154°
2026-04-17 23:22 36.40491 22.98085 38859 ft 468 kts 154°
2026-04-17 23:22 36.34681 23.01754 38844 ft 470 kts 155°
2026-04-17 23:23 36.28807 23.05449 38849 ft 476 kts 155°
2026-04-17 23:23 36.22862 23.09183 38843 ft 481 kts 155°
2026-04-17 23:24 36.16889 23.12940 38842 ft 482 kts 155°
2026-04-17 23:24 36.10897 23.16705 38844 ft 483 kts 155°
2026-04-17 23:25 36.04901 23.20453 38842 ft 484 kts 155°
2026-04-17 23:25 35.98887 23.24203 38854 ft 484 kts 155°
2026-04-17 23:26 35.92875 23.27959 38856 ft 485 kts 155°
2026-04-17 23:26 35.86860 23.31715 38853 ft 484 kts 156°
2026-04-17 23:27 35.80881 23.35432 38855 ft 485 kts 156°
2026-04-17 23:27 35.74857 23.39160 38859 ft 485 kts 156°
2026-04-17 23:28 35.68822 23.42893 38858 ft 485 kts 156°
2026-04-17 23:28 35.62787 23.46622 38859 ft 485 kts 156°
2026-04-17 23:29 35.56759 23.50348 38856 ft 485 kts 156°
2026-04-17 23:29 35.50736 23.54068 38851 ft 485 kts 156°
2026-04-17 23:30 35.44709 23.57775 38851 ft 485 kts 156°
2026-04-17 23:30 35.38676 23.61486 38843 ft 485 kts 156°
2026-04-17 23:31 35.32638 23.65182 38835 ft 485 kts 156°
2026-04-17 23:31 35.26594 23.68877 38830 ft 486 kts 156°
2026-04-17 23:32 35.20591 23.72549 38822 ft 486 kts 156°
2026-04-17 23:32 35.14541 23.76239 38821 ft 486 kts 156°
2026-04-17 23:33 35.08480 23.79926 38816 ft 486 kts 157°
2026-04-17 23:33 35.02430 23.83610 38806 ft 486 kts 157°
2026-04-17 23:34 34.96372 23.87292 38802 ft 486 kts 157°
2026-04-17 23:34 34.90320 23.90957 38799 ft 486 kts 157°
2026-04-17 23:35 34.84263 23.94620 38798 ft 486 kts 157°
2026-04-17 23:35 34.78207 23.98287 38796 ft 487 kts 157°
2026-04-17 23:36 34.72133 24.01948 38794 ft 487 kts 158°
2026-04-17 23:36 34.66098 24.05573 38797 ft 488 kts 158°
2026-04-17 23:37 34.60014 24.09225 38799 ft 488 kts 158°
2026-04-17 23:37 34.53926 24.12885 38795 ft 489 kts 158°
2026-04-17 23:38 34.47830 24.16543 38795 ft 489 kts 158°
2026-04-17 23:38 34.41729 24.20193 38801 ft 489 kts 158°
2026-04-17 23:39 34.35622 24.23835 38800 ft 489 kts 158°
2026-04-17 23:39 34.29513 24.27486 38802 ft 490 kts 158°
2026-04-17 23:40 34.23406 24.31131 38799 ft 490 kts 158°
2026-04-17 23:40 34.17288 24.34760 38797 ft 490 kts 158°
2026-04-17 23:41 34.11212 24.38362 38794 ft 490 kts 159°
2026-04-17 23:41 34.05097 24.41979 38797 ft 490 kts 159°
2026-04-17 23:42 33.99141 24.46017 38797 ft 497 kts 146°
2026-04-17 23:42 33.93928 24.51550 38790 ft 500 kts 142°
2026-04-17 23:43 33.88740 24.57135 38787 ft 500 kts 142°
2026-04-17 23:43 33.83541 24.62702 38788 ft 501 kts 142°
2026-04-17 23:44 33.78334 24.68277 38786 ft 501 kts 142°
2026-04-17 23:44 33.73130 24.73856 38785 ft 502 kts 143°
2026-04-17 23:45 33.65305 24.82207 38789 ft 502 kts 143°
2026-04-17 23:46 33.60076 24.87775 38787 ft 502 kts 143°
2026-04-17 23:46 33.54853 24.93344 38789 ft 503 kts 143°
2026-04-17 23:47 33.49626 24.98909 38786 ft 502 kts 143°
2026-04-17 23:47 33.44424 25.04414 38787 ft 502 kts 143°
2026-04-17 23:48 33.39193 25.09941 38792 ft 502 kts 143°
2026-04-17 23:48 33.33963 25.15466 38794 ft 501 kts 144°
2026-04-17 23:49 33.28729 25.20987 38784 ft 502 kts 144°
2026-04-17 23:49 33.23493 25.26505 38796 ft 502 kts 144°
2026-04-17 23:50 33.18250 25.32018 38783 ft 502 kts 144°
2026-04-17 23:50 33.13005 25.37516 38791 ft 502 kts 144°
2026-04-17 23:51 33.07758 25.43015 38786 ft 502 kts 144°
2026-04-17 23:51 33.02506 25.48513 38783 ft 503 kts 144°
2026-04-17 23:52 32.97244 25.54008 38784 ft 503 kts 144°
2026-04-17 23:52 32.91976 25.59504 38782 ft 504 kts 144°
2026-04-17 23:53 32.86701 25.65003 38782 ft 505 kts 145°
2026-04-17 23:53 32.81415 25.70499 38789 ft 506 kts 145°
2026-04-17 23:54 32.76115 25.75996 38789 ft 506 kts 145°
2026-04-17 23:54 32.70809 25.81493 38788 ft 506 kts 145°
2026-04-17 23:55 32.65505 25.86982 38790 ft 506 kts 146°
2026-04-17 23:55 32.60225 25.92429 38789 ft 506 kts 146°
2026-04-17 23:56 32.54911 25.97904 38788 ft 507 kts 146°
2026-04-17 23:56 32.49590 26.03389 38790 ft 507 kts 146°
2026-04-17 23:57 32.44264 26.08872 38796 ft 507 kts 146°
2026-04-17 23:57 32.38934 26.14337 38792 ft 507 kts 146°
2026-04-17 23:58 32.33601 26.19790 38787 ft 507 kts 146°
2026-04-17 23:58 32.28263 26.25244 38792 ft 507 kts 147°
2026-04-17 23:59 32.22925 26.30701 38791 ft 507 kts 147°
2026-04-17 23:59 32.17588 26.36141 38796 ft 507 kts 147°
2026-04-18 00:00 32.12239 26.41576 38794 ft 507 kts 147°
2026-04-18 00:00 32.06893 26.47009 38795 ft 507 kts 147°
2026-04-18 00:01 32.01547 26.52439 38798 ft 508 kts 147°
2026-04-18 00:01 31.96194 26.57866 38789 ft 507 kts 147°
2026-04-18 00:02 31.90836 26.63275 38780 ft 507 kts 147°
2026-04-18 00:02 31.85517 26.68646 38777 ft 507 kts 147°
2026-04-18 00:03 31.80171 26.74045 38767 ft 507 kts 147°
2026-04-18 00:03 31.74815 26.79430 38765 ft 507 kts 147°
2026-04-18 00:04 31.69453 26.84809 38766 ft 507 kts 147°
2026-04-18 00:04 31.64093 26.90187 38757 ft 507 kts 147°
2026-04-18 00:05 31.58727 26.95563 38752 ft 507 kts 147°
2026-04-18 00:05 31.53358 27.00934 38746 ft 507 kts 147°
2026-04-18 00:06 31.47983 27.06301 38741 ft 508 kts 147°
2026-04-18 00:06 31.42606 27.11659 38734 ft 508 kts 147°
2026-04-18 00:07 31.37263 27.16987 38736 ft 508 kts 147°
2026-04-18 00:07 31.31775 27.22111 38735 ft 497 kts 157°
2026-04-18 00:08 31.25680 27.25653 38731 ft 487 kts 164°
2026-04-18 00:08 31.19527 27.28979 38733 ft 488 kts 164°
2026-04-18 00:09 31.14369 27.31781 38732 ft 488 kts 164°
2026-04-18 00:09 31.08255 27.35115 38737 ft 489 kts 164°
2026-04-18 00:10 31.02084 27.38452 38746 ft 489 kts 164°
2026-04-18 00:10 30.95907 27.41776 38758 ft 489 kts 164°
2026-04-18 00:10 30.92891 27.43687 38755 ft 500 kts 154°
2026-04-18 00:11 30.90093 27.46148 38758 ft 507 kts 149°
2026-04-18 00:11 30.84583 27.51274 38759 ft 507 kts 149°
2026-04-18 00:12 30.79069 27.56404 38766 ft 507 kts 150°
2026-04-18 00:12 30.73546 27.61516 38771 ft 507 kts 150°
2026-04-18 00:13 30.68019 27.66618 38777 ft 507 kts 150°
2026-04-18 00:13 30.62493 27.71716 38781 ft 507 kts 150°
2026-04-18 00:14 30.56971 27.76808 38782 ft 506 kts 150°
2026-04-18 00:14 30.51457 27.81884 38792 ft 506 kts 150°
2026-04-18 00:15 30.45946 27.86943 38795 ft 505 kts 150°
2026-04-18 00:15 30.40429 27.91990 38792 ft 505 kts 150°
2026-04-18 00:16 30.34957 27.96993 38797 ft 504 kts 150°
2026-04-18 00:16 30.29452 28.02026 38798 ft 504 kts 150°
2026-04-18 00:17 30.23945 28.07061 38802 ft 504 kts 151°
2026-04-18 00:17 30.18436 28.12080 38802 ft 505 kts 151°
2026-04-18 00:18 30.12920 28.17097 38806 ft 505 kts 151°
2026-04-18 00:18 30.07391 28.22117 38813 ft 505 kts 151°
2026-04-18 00:19 30.01866 28.27129 38812 ft 506 kts 152°
2026-04-18 00:19 29.96336 28.32145 38816 ft 506 kts 152°
2026-04-18 00:20 29.90802 28.37156 38823 ft 506 kts 152°
2026-04-18 00:20 29.85489 28.42576 38822 ft 522 kts 139°
2026-04-18 00:21 29.81013 28.49238 38817 ft 527 kts 136°
2026-04-18 00:21 29.76553 28.55935 38817 ft 527 kts 136°
2026-04-18 00:22 29.72073 28.62615 38809 ft 527 kts 136°
2026-04-18 00:22 29.67581 28.69282 38810 ft 527 kts 136°
2026-04-18 00:23 29.63111 28.75899 38816 ft 528 kts 136°
2026-04-18 00:23 29.58619 28.82570 38817 ft 528 kts 136°
2026-04-18 00:24 29.54129 28.89249 38816 ft 528 kts 137°
2026-04-18 00:24 29.49629 28.95924 38812 ft 528 kts 137°
2026-04-18 00:25 29.45122 29.02586 38817 ft 529 kts 137°
2026-04-18 00:25 29.40289 29.08784 38817 ft 510 kts 151°
2026-04-18 00:26 29.34712 29.13668 38822 ft 504 kts 154°
2026-04-18 00:26 29.29113 29.18521 38831 ft 505 kts 154°
2026-04-18 00:27 29.23519 29.23391 38831 ft 505 kts 154°
2026-04-18 00:27 29.17915 29.28249 38834 ft 505 kts 154°
2026-04-18 00:28 29.12343 29.33070 38833 ft 505 kts 154°
2026-04-18 00:28 29.06705 29.37851 38842 ft 504 kts 155°
2026-04-18 00:29 29.01030 29.42534 38842 ft 503 kts 156°
2026-04-18 00:29 28.95343 29.47210 38846 ft 503 kts 156°
2026-04-18 00:30 28.89669 29.51902 38839 ft 504 kts 156°
2026-04-18 00:30 28.84002 29.56609 38848 ft 504 kts 156°
2026-04-18 00:31 28.78332 29.61311 38852 ft 504 kts 156°
2026-04-18 00:31 28.72659 29.66006 38854 ft 504 kts 156°
2026-04-18 00:32 28.66984 29.70690 38856 ft 504 kts 156°
2026-04-18 00:32 28.61303 29.75363 38857 ft 504 kts 156°
2026-04-18 00:33 28.55621 29.80033 38854 ft 504 kts 156°
2026-04-18 00:33 28.49936 29.84705 38858 ft 505 kts 156°
2026-04-18 00:34 28.44278 29.89358 38862 ft 505 kts 156°
2026-04-18 00:34 28.38577 29.94038 38872 ft 506 kts 157°
2026-04-18 00:35 28.32861 29.98703 38875 ft 506 kts 157°
2026-04-18 00:35 28.27142 30.03376 38874 ft 507 kts 157°
2026-04-18 00:36 28.21421 30.08050 38878 ft 507 kts 157°
2026-04-18 00:36 28.15696 30.12722 38880 ft 507 kts 157°
2026-04-18 00:37 28.09965 30.17388 38881 ft 507 kts 157°
2026-04-18 00:37 28.04231 30.22046 38886 ft 508 kts 157°
2026-04-18 00:38 27.98483 30.26714 38891 ft 509 kts 157°
2026-04-18 00:38 27.92730 30.31373 38898 ft 509 kts 157°
2026-04-18 00:39 27.86973 30.36036 38903 ft 509 kts 157°
2026-04-18 00:39 27.81210 30.40699 38903 ft 509 kts 157°
2026-04-18 00:40 27.75443 30.45354 38906 ft 510 kts 157°
2026-04-18 00:40 27.69676 30.50006 38918 ft 510 kts 157°
2026-04-18 00:41 27.63938 30.54631 38920 ft 510 kts 157°
2026-04-18 00:41 27.58275 30.59555 38915 ft 519 kts 152°
2026-04-18 00:42 27.52800 30.64892 38916 ft 522 kts 150°
2026-04-18 00:42 27.47357 30.70306 38920 ft 522 kts 150°
2026-04-18 00:43 27.41918 30.75681 38915 ft 521 kts 150°
2026-04-18 00:43 27.36435 30.81036 38919 ft 521 kts 151°
2026-04-18 00:44 27.30942 30.86370 38926 ft 522 kts 151°
2026-04-18 00:44 27.25451 30.91705 38934 ft 523 kts 150°
2026-04-18 00:45 27.19959 30.97068 38937 ft 523 kts 150°
2026-04-18 00:45 27.14465 31.02430 38944 ft 523 kts 150°
2026-04-18 00:46 27.08959 31.07780 38946 ft 523 kts 150°
2026-04-18 00:46 27.03450 31.13126 38946 ft 523 kts 150°
2026-04-18 00:47 26.97949 31.18455 38939 ft 523 kts 150°
2026-04-18 00:47 26.92448 31.23769 38693 ft 520 kts 150°
2026-04-18 00:47 26.89715 31.26414 37994 ft 519 kts 150°
2026-04-18 00:48 26.86985 31.29051 37294 ft 518 kts 150°
2026-04-18 00:48 26.84294 31.31653 36640 ft 517 kts 150°
2026-04-18 00:48 26.81569 31.34282 35944 ft 516 kts 150°
2026-04-18 00:49 26.76140 31.39509 34552 ft 514 kts 150°
2026-04-18 00:49 26.73433 31.42113 33876 ft 513 kts 150°
2026-04-18 00:49 26.70733 31.44708 33188 ft 509 kts 150°
2026-04-18 00:49 26.68056 31.47281 32464 ft 507 kts 149°
2026-04-18 00:50 26.65385 31.49847 31732 ft 505 kts 149°
2026-04-18 00:50 26.62727 31.52401 31082 ft 502 kts 149°
2026-04-18 00:50 26.60089 31.54936 30474 ft 498 kts 149°
2026-04-18 00:50 26.57472 31.57450 29851 ft 494 kts 149°
2026-04-18 00:51 26.54876 31.59941 29152 ft 490 kts 149°
2026-04-18 00:51 26.52303 31.62405 28504 ft 485 kts 149°
2026-04-18 00:51 26.49755 31.64844 27916 ft 480 kts 149°
2026-04-18 00:51 26.47238 31.67253 27337 ft 474 kts 149°
2026-04-18 00:52 26.44745 31.69636 26760 ft 469 kts 149°
2026-04-18 00:52 26.42278 31.71995 26193 ft 465 kts 149°
2026-04-18 00:52 26.39835 31.74329 25649 ft 460 kts 149°
2026-04-18 00:52 26.37416 31.76639 25109 ft 455 kts 149°
2026-04-18 00:53 26.35021 31.78922 24579 ft 451 kts 149°
2026-04-18 00:53 26.32648 31.81183 24057 ft 446 kts 149°
2026-04-18 00:53 26.30298 31.83419 23541 ft 442 kts 149°
2026-04-18 00:53 26.27970 31.85633 22962 ft 438 kts 148°
2026-04-18 00:54 26.25696 31.87795 22410 ft 433 kts 148°
2026-04-18 00:54 26.23416 31.89967 21885 ft 429 kts 148°
2026-04-18 00:54 26.21163 31.92110 21376 ft 424 kts 148°
2026-04-18 00:54 26.18935 31.94228 20877 ft 419 kts 148°
2026-04-18 00:55 26.16725 31.96324 20384 ft 415 kts 148°
2026-04-18 00:55 26.14540 31.98397 19891 ft 411 kts 148°
2026-04-18 00:55 26.12378 32.00450 19431 ft 407 kts 147°
2026-04-18 00:55 26.10235 32.02481 18984 ft 402 kts 147°
2026-04-18 00:56 26.08110 32.04492 18459 ft 401 kts 147°
2026-04-18 00:56 26.05994 32.06494 17955 ft 398 kts 147°
2026-04-18 00:56 26.03897 32.08480 17453 ft 394 kts 147°
2026-04-18 00:56 26.01821 32.10446 16973 ft 390 kts 147°
2026-04-18 00:57 25.99765 32.12390 16501 ft 386 kts 147°
2026-04-18 00:57 25.97728 32.14310 16035 ft 382 kts 147°
2026-04-18 00:57 25.95711 32.16213 15591 ft 378 kts 147°
2026-04-18 00:57 25.93715 32.18099 15140 ft 375 kts 147°
2026-04-18 00:58 25.91740 32.19965 14700 ft 371 kts 147°
2026-04-18 00:58 25.89807 32.21792 14280 ft 368 kts 147°
2026-04-18 00:58 25.87866 32.23623 13848 ft 365 kts 147°
2026-04-18 00:58 25.85942 32.25436 13389 ft 361 kts 147°
2026-04-18 00:59 25.84033 32.27235 12885 ft 359 kts 147°
2026-04-18 00:59 25.82138 32.29020 12376 ft 356 kts 147°
2026-04-18 00:59 25.80257 32.30789 11887 ft 353 kts 147°
2026-04-18 00:59 25.78390 32.32546 11399 ft 350 kts 147°
2026-04-18 01:00 25.76541 32.34287 10917 ft 348 kts 147°
2026-04-18 01:00 25.74702 32.36016 10440 ft 345 kts 147°
2026-04-18 01:00 25.72879 32.37726 9973 ft 342 kts 147°
2026-04-18 01:00 25.71074 32.39421 9483 ft 339 kts 147°
2026-04-18 01:01 25.69278 32.41106 8932 ft 338 kts 146°
2026-04-18 01:01 25.67489 32.42783 8376 ft 337 kts 146°
2026-04-18 01:01 25.65701 32.44461 7857 ft 336 kts 145°
2026-04-18 01:01 25.63976 32.46083 7651 ft 314 kts 146°
2026-04-18 01:02 25.62888 32.47113 7310 ft 307 kts 145°
2026-04-18 01:02 25.61293 32.48615 6871 ft 295 kts 145°
2026-04-18 01:02 25.59757 32.50061 6401 ft 286 kts 145°
2026-04-18 01:02 25.58260 32.51466 5928 ft 278 kts 145°
2026-04-18 01:03 25.56321 32.53246 5270 ft 269 kts 145°
2026-04-18 01:03 25.54882 32.54528 4791 ft 263 kts 145°
2026-04-18 01:03 25.53459 32.55768 4304 ft 259 kts 145°
2026-04-18 01:03 25.52052 32.56994 3815 ft 256 kts 138°
2026-04-18 01:04 25.51301 32.58020 3527 ft 254 kts 117°
2026-04-18 01:04 25.50808 32.59834 3439 ft 241 kts 90°
2026-04-18 01:04 25.51011 32.61608 3345 ft 229 kts 66°
2026-04-18 01:04 25.51778 32.63088 3185 ft 217 kts 42°
2026-04-18 01:05 25.52897 32.64067 2965 ft 200 kts 22°
2026-04-18 01:05 25.54140 32.64658 2722 ft 190 kts 17°
2026-04-18 01:05 25.55339 32.65211 2497 ft 183 kts 17°
2026-04-18 01:05 25.56505 32.65749 2266 ft 180 kts 16°
2026-04-18 01:06 25.57660 32.66282 2019 ft 179 kts 15°
2026-04-18 01:06 25.58762 32.66793 1813 ft 161 kts 17°
2026-04-18 01:06 25.59744 32.67248 1596 ft 146 kts 17°
2026-04-18 01:06 25.60661 32.67671 1406 ft 139 kts 17°
2026-04-18 01:07 25.61553 32.68081 1210 ft 137 kts 16°
2026-04-18 01:07 25.62452 32.68486 1058 ft 140 kts 17°
2026-04-18 01:07 25.63355 32.68894 875 ft 140 kts 21°
2026-04-18 01:07 25.64255 32.69322 693 ft 140 kts 22°
2026-04-18 01:08 25.65164 32.69727 543 ft 142 kts 20°
2026-04-18 01:08 25.66058 32.70160 358 ft 139 kts 16°
2026-04-18 01:08 25.66854 32.70525 330 ft 109 kts 22°
2026-04-18 01:08 25.67303 32.70733 327 ft 21 kts 23°
2026-04-18 01:09 25.67395 32.70736 331 ft 13 kts 315°
2026-04-18 01:09 25.67419 32.70675 332 ft 6 kts 292°
2026-04-18 01:09 25.67436 32.70635 332 ft 8 kts 295°
2026-04-18 01:09 25.67464 32.70576 331 ft 8 kts 298°
2026-04-18 01:10 25.67478 32.70519 331 ft 8 kts 251°
2026-04-18 01:10 25.67438 32.70487 331 ft 7 kts 207°
2026-04-18 01:10 25.67400 32.70466 330 ft 6 kts 207°
2026-04-18 01:10 25.67369 32.70448 332 ft 5 kts 208°
2026-04-18 01:11 25.67344 32.70433 328 ft 4 kts 208°
2026-04-18 01:11 25.67314 32.70416 331 ft 6 kts 207°
2026-04-18 01:11 25.67295 32.70382 327 ft 4 kts 276°
2026-04-18 01:11 25.67305 32.70354 330 ft 3 kts 301°
2026-04-18 01:12 25.67308 32.70349 332 ft 0 kts 300°